Location: Burgwalden
(48.2830°N, 10.7576°E)
Time: 01:36:09
(UTC+00:00)

Cosmos 1867 - Pass Details

Date: 26 September 2023
Orbit: 774 x 800 km, 65.0° (Epoch: 04 December)

Event Time Altitude Azimuth Distance (km) Brightness Sun altitude
Rises 04:12:39 0° 322° (NW) 3,314 6.5 -10.1°
Reaches altitude 10° 04:15:05 10° 323° (NW) 2,383 5.8 -9.7°
Maximum altitude 04:20:35 81° 50° (NE) 817 3.7 -8.8°
Drops below altitude 10° 04:26:04 10° 139° (SE) 2,370 6.5 -7.9°
Sets 04:28:29 0° 141° (SE) 3,295 7.3 -7.5°
